User: anonymous   Login
Location: Caltech
(34.1382°N, 118.1253°W)
Time: 10:51:33
(UTC-07:00)
Language:

ADEOS II - Orbit

View from above orbital plane
View from above orbital plane
View from above satellite
View from above satellite

Ground track
Ground track

The orbit data is extracted from the following two-line orbital elements,

1 27597U 02056A   16176.51760204  .00000045  00000-0  35217-4 0  9990
2 27597  98.3221 156.2767 0000781  37.2040 322.9196 14.27218256704408
Epoch (UTC): 24 June 2016 12:25:20
Eccentricity: 0.0000781
inclination: 98.3221°
perigee height: 800 km
apogee height: 801 km
right ascension of ascending node: 156.2767°
argument of perigee: 37.2040°
revolutions per day: 14.27218256
mean anomaly at epoch: 322.9196°
orbit number at epoch: 70440

The dashed part of the orbit path shows where the satellite is in the earth's shadow,  

DLR